Flag for Fiji Weather past 2 weeks in Lautoka, Fiji

Now
79 °F

Partly cloudy.


Feels Like: 82 °F
Forecast: 75 / 84 °F
Wind: 7 mph from Southwest

Location: Nandi

Current Time: Jul 4, 2015 at 9:34:48 PM

Latest Report: Jul 4, 2015 at 9:00 PM


Visibility: N/A

Pressure: 29.92 "Hg

Humidity: 84%

Dew point: 73 °F

Location of LautokaLocation

Historic Weather in Lautoka — Graph

°F

Lautoka temperature yesterday

Maximum temperature yesterday: 82 °F (at 11:00 AM)
Minimum temperature yesterday: 66 °F (at 5:00 AM)
Average temperature yesterday: 73 °F

Past Weeks' High & Low Weather Summary

 TemperatureHumidityPressure
High88 °F (Jul 4, 3:00 PM)100% (Jun 23, 1:00 AM)30.09 "Hg (Jun 23, 1:00 AM)
Low57 °F (Jul 1, 5:00 AM)47% (Jun 24, 4:00 PM)29.77 "Hg (Jun 23, 2:00 PM)
Average71 °F75%29.95 "Hg
* Reported Jun 19 8:00 PM — Jul 4 8:00 PM, Lautoka, Weather by CustomWeather, © 2015

Note: Actual official high and low records may vary slightly from our data, if they occured in-between our weather recording intervals... More about our weather records

Advertising

Lautoka weather history for previous 24 hours

 ConditionsComfort  
Time TempWeatherWind HumidityBarometerVisibility
8:00 PM
Sat, Jul 4
79 °FPartly cloudy.5 mph84%29.92 "HgN/A
7:00 PM81 °FPassing clouds.5 mph79%29.89 "HgN/A
6:00 PM81 °FPassing clouds.7 mph79%29.86 "HgN/A
5:00 PM82 °FPassing clouds.10 mph79%29.83 "HgN/A
4:00 PM86 °FPassing clouds.13 mph59%29.80 "Hg31 mi
3:00 PM88 °FPassing clouds.14 mph70%29.80 "HgN/A
2:00 PM86 °FScattered clouds.6 mph75%29.83 "HgN/A
1:00 PM86 °FPassing clouds.12 mph55%29.83 "HgN/A
12:00 PM82 °FScattered clouds.13 mph62%29.89 "HgN/A
11:00 AM82 °FPassing clouds.10 mph66%29.89 "HgN/A
10:00 AM82 °FPassing clouds.5 mph58%29.89 "HgN/A
9:00 AM79 °FPassing clouds.No wind65%29.89 "HgN/A
8:00 AM72 °FPassing clouds.No wind78%29.89 "HgN/A
7:00 AM66 °FPassing clouds.5 mph94%29.89 "HgN/A
6:00 AM66 °FPassing clouds.6 mph94%29.86 "HgN/A
5:00 AM68 °FPassing clouds.6 mph88%29.86 "HgN/A
4:00 AM68 °FPassing clouds.No wind88%29.86 "HgN/A
3:00 AM68 °FPassing clouds.5 mph88%29.86 "HgN/A
2:00 AM68 °FPassing clouds.No wind94%29.89 "HgN/A
1:00 AM70 °FPassing clouds.No wind88%29.89 "HgN/A
12:00 AM70 °FPassing clouds.5 mph88%29.89 "HgN/A
11:00 PM
Fri, Jul 3
70 °FPassing clouds.6 mph88%29.89 "HgN/A
10:00 PM70 °FPassing clouds.5 mph88%29.89 "HgN/A
9:00 PM72 °FPassing clouds.5 mph83%29.89 "HgN/A
Weather by CustomWeather, © 2015

See weather overviewHow to use our weather pages